Regional Weather Roundup
Issued by NWS

Home | Current Version | Previous Version | Text Only | Print | Product List | Glossary On
Versions: 1 2 3 4 5 6 7 8 9 10 11 12 13 14 15 16 17 18 19 20 21 22 23 24 25 26 27 28 29 30 31 32 33 34 35 36 37 38 39 40 41 42 43 44 45 46 47 48 49 50
000
ASUS44 KBMX 311410
RWRAL

ALABAMA REGIONAL WEATHER ROUNDUP
NATIONAL WEATHER SERVICE BIRMINGHAM AL
900 AM CDT MON AUG 31 2015

NOTE: "FAIR" INDICATES FEW OR NO CLOUDS BELOW 12,000 FEET
WITH NO SIGNIFICANT WEATHER AND/OR OBSTRUCTIONS TO VISIBILITY.

THE REMARK "TC" DENOTES TEMPERATURE IN DEGREES CELSIUS.

ALZ001>011-014-016>018-020-311500-
NORTH ALABAMA

CITY           SKY/WX    TMP DP  RH WIND       PRES   REMARKS
MUSCLE SHOALS  CLOUDY    71  66  84 E3        30.14R
HUNTSVILLE     PTSUNNY   75  67  76 SE7       30.13R
DECATUR        CLOUDY    71  67  87 E6        30.13R
HALEYVILLE     CLOUDY    70  70 100 CALM      30.16R
GADSDEN        CLOUDY    70  63  78 E6        30.12S
$$

ALZ012-013-022-023-030>036-040>044-311500-
WEST CENTRAL ALABAMA

CITY           SKY/WX    TMP DP  RH WIND       PRES   REMARKS
TUSCALOOSA     MOSUNNY   76  70  82 NE3       30.12R
$$

ALZ015-024>027-033>036-040>044-311500-
CENTRAL ALABAMA

CITY           SKY/WX    TMP DP  RH WIND       PRES   REMARKS
BIRMINGHAM     CLOUDY    71  69  93 CALM      30.14R FOG
MONTGOMERY     PTSUNNY   79  70  74 N3        30.09S
SHELBY CO ARPT PTSUNNY   75  70  84 CALM      30.12R
MAXWELL AFB    MOSUNNY   76  71  84 VRB5      30.09R
GREENVILLE     FAIR      79  70  74 NE6       30.08
$$

ALZ019-021-028-029-037-038-045>048-311500-
EAST CENTRAL ALABAMA

CITY           SKY/WX    TMP DP  RH WIND       PRES   REMARKS
ANNISTON       CLOUDY    72  67  84 E6        30.13R
ALEXANDER CITY CLOUDY    74  71  88 CALM      30.12R
AUBURN         NOT AVBL
$$

ALZ051>064-311500-
SOUTHWEST ALABAMA

CITY           SKY/WX    TMP DP  RH WIND       PRES   REMARKS
MOBILE         MOSUNNY   81  72  74 VRB6      30.08R
BROOKLEY FIELD SUNNY     84  71  65 N8        30.08R
EVERGREEN      SUNNY     78  72  81 CALM      30.09R
$$

ALZ049-050-065>069-311500-
SOUTHEAST ALABAMA

CITY           SKY/WX    TMP DP  RH WIND       PRES   REMARKS
DOTHAN         FOG       72  72 100 E6        30.12R VSB 1/2
OZARK          MOSUNNY   76  71  86 VRB5      30.08R
TROY           CLOUDY    71  71 100 CALM      30.10R FOG
EUFAULA        CLOUDY    77  73  88 E3        30.08R
$$



USA.gov is the U.S. government's official web portal to all federal, state and local government web resources and services.